SKYSAT-C7 (42991 NORAD) Tracking and Keplerian Element Data

This shows tracking and keplerian element data for the satellite.

Feedback or suggestion? Click here.




ElementValue
Catalog42991
NameSKYSAT-C7
Epoch Orbit10762
Epoch Day282.86678354
Epoch Year2019
RAAN35.4955
Inclination97.4438
Eccentricity0.0004073
Argument of Perigee239.4089
Mean Anonmoly120.6745
Mean Motion15.2186666
Decay Rate4.94E-06
L11 42991U 17068E 19282.86678354 .00000494 00000-0 24801-4 0 9992
L22 42991 97.4438 35.4955 0004073 239.4089 120.6745 15.21866660107624

Live tracking and technical data element details for SKYSAT-C7 (NORAD 42991). SKYSAT-C7 can be tracked NOW for your location showing map with azimuth and elevation plus other details from your city location.

Track the satellite on the map from your city or location and see movement details for azimuth, elevation, latitude, longitude, range, height, and movement on the map or in text.







IsCatalogInMostPopularTable: catalog: 42991, numindb: 319
Update: records affected: 1



GetName: 42991 SKYSAT-C7

Hit Count: updated at: Mon, 14 Oct 2019 00:34:10 GMT